Tracking 17150 objects as of 4-August-2015
HD Live streaming from Space Station

CZ-3C R/B

Track CZ-3C R/B now!
10-day predictions
CZ-3C R/B is classified as:


NORAD ID: 36591
Int'l Code: 2010-024B
Perigee: 190.1 km
Apogee: 20,880.8 km
Inclination: 20.7 °
Period: 364.6 minutes
Semi major axis: 16906 km
RCS: 15.0139 m2 (large)
Launch date: June 2, 2010
Source: People's Republic of China (PRC)

Note: This is a ROCKET BODY
Your satellite tracking list
Your tracking list is empty





NASA's NSSDC Master Catalog

Two Line Element Set (TLE):
1 36591U 10024B   15215.86478332  .00053491 -49007-6  10871-2 0  9994
2 36591 020.6649 133.4769 6119169 312.7380 021.6925 03.94934736 57558

Source of the keplerian elements: AFSPC

N2YO: 375